sat.trackr.live / text

‹ back to catalog

STARLINK-3707

NORAD 52133 · 2022-029AX

PAYLOAD ACTIVE UNKNOWN

§ Identity

Operator
Country
US
Launch date
2022-03-19
Launch site
AFETR
Launch vehicle
Mass (kg)
RCS (m²)

Purposes: comms

External: N2YO · Heavens-Above · Gunter

§ Orbital elements

Epoch: 2026-09-19T16:19:30.531936Z

Period
93.85 min
Inclination
53.1605°
Eccentricity
0.0001234
Mean motion
15.34391517 rev/d
Perigee alt
461.9 km
Apogee alt
463.6 km
Semi-major
6,840.9 km
B*
8.6173e-6
RAAN
271.2512°
Arg perigee
71.7413°
Mean anomaly
288.3724°
Rev number
25,031

§ Raw data

STARLINK-37071 52133U 22029AX  26262.68021449 -.00000085  00000+0  86173-5 0  99942 52133  53.1605 271.2512 0001234  71.7413 288.3724 15.34391517250313

JSON: /api/v1/satellites/52133 · /tle

For live sub-satellite position, see the globe view (requires WebGL).

§ Visibility from observer

Set your observer location to see the next 7 days of passes ≥ 10°. The values pass through the URL so the page stays shareable.

No JS? Fill the form by hand. The geolocation button needs JavaScript.